Hourly Weather Roundup
Issued by NWS Central Illinois

Home | Current Version | Previous Version | Text Only | Print | Product List | Glossary Off
Versions: 1 2 3 4 5 6 7 8 9 10 11 12 13 14 15 16 17 18 19 20 21 22 23 24 25 26 27 28 29 30 31 32 33 34 35 36 37 38 39 40 41 42 43 44 45 46 47 48 49 50

000
NZUS43 KILX 031610
HWRILX

AREA WEATHER ROUNDUP
NATIONAL WEATHER SERVICE, LINCOLN IL
1100 AM CDT TUE MAY 03 2016


CITY           SKY/WX    TMP DP  RH WIND       PRES   REMARKS
BLOOMINGTON    SUNNY     62  45  53 N13       30.00F
CHAMPAIGN      SUNNY     62  40  44 NW12      29.99F
DANVILLE       SUNNY     57  42  57 NW9       29.96F
DECATUR        SUNNY     62  43  49 N8G18     30.00F
EFFINGHAM      SUNNY     60  45  57 NW10G16   30.02F
FLORA          PTSUNNY   60  45  56 N6        30.01F
GALESBURG      SUNNY     62  47  58 NW13      30.01F
JACKSONVILLE   MOSUNNY   61  43  51 NW10      30.03S
LACON          SUNNY     62  44  51 NW8       29.98F
LAWRENCEVILLE  CLOUDY    57  48  72 N15       29.99F
LITCHFIELD     MOSUNNY   59  42  53 N6        30.02F
$$


CITY           SKY/WX    TMP DP  RH WIND       PRES   REMARKS
LINCOLN        SUNNY     62  46  56 NW5       30.00F
MACOMB         SUNNY     62  43  49 NW9       30.04F
MATTOON        SUNNY     60  42  51 N9        29.99F
MT CARMEL AP   PTSUNNY   57  48  72 NW8       29.99F
OLNEY-NOBLE AP CLOUDY    57  46  67 NW12      30.00F
PARIS          MOSUNNY   59  47  63 NW7       30.00F
PEORIA         SUNNY     63  43  48 NW6       30.00F
PONTIAC        SUNNY     62  48  60 NW8       29.98F
RANTOUL        SUNNY     62  45  53 NW9G16    29.98F
ROBINSON       PTSUNNY   56  49  75 N10       30.00F
SPRINGFIELD    SUNNY     63  44  50 N9        30.02F
TAYLORVILLE    SUNNY     59  45  58 NW9       30.02S
$$

...REGIONAL REPORTS...


CITY           SKY/WX    TMP DP  RH WIND       PRES   REMARKS
CHICAGO O`HARE MOSUNNY   61  40  45 VRB7      29.93F
KANKAKEE       SUNNY     62  39  42 N7        29.97S
MOLINE         SUNNY     64  45  49 W13       29.99F
MOUNT STERLING PTSUNNY   59  43  55 W9        30.03S
MOUNT VERNON   PTSUNNY   61  39  44 N5        30.02S
PITTSFIELD     SUNNY     60  45  55 W8        30.05S
QUINCY         MOSUNNY   60  42  51 NW12      30.04F
ROCKFORD       MOSUNNY   64  43  46 NW10      29.97F
$$


CITY           SKY/WX    TMP DP  RH WIND       PRES   REMARKS
BURLINGTON     SUNNY     62  44  51 VRB6      30.02F
CEDAR RAPIDS     N/A    N/A N/A N/A MISG      29.99F
DES MOINES     MOSUNNY   65  42  43 VRB5      30.02F
KIRKSVILLE     SUNNY     61  43  51 SW5       30.06F
OTTUMWA        SUNNY     61  44  53 W5        30.03F
ST LOUIS       MOSUNNY   62  46  55 NW7       30.04F
$$


CITY           SKY/WX    TMP DP  RH WIND       PRES   REMARKS
TERRE HAUTE    CLOUDY    57  44  62 N8        29.99S
EVANSVILLE     PTSUNNY   59  46  62 N9        30.00S
INDIANAPOLIS   CLOUDY    53  47  79 N7        29.95S
LAFAYETTE      MOSUNNY   57  41  55 N8        29.96F
MADISON        MOSUNNY   64  40  41 NW10G17   29.91F
MILWAUKEE      MOSUNNY   65  36  34 NW12      29.90F
$$





USA.gov is the U.S. government's official web portal to all federal, state and local government web resources and services.